IV3NGF Weather Reports


Display with metric or nautical units.
time (UTC)temp
F
wind
direction
speed
MPH
gust
MPH
rain 1hr
in
rain 24hr
in
rain mn
in
humidity
%
barometer
mb
20260906064855 77 45 2.0 4.0 0.00 0.00 0.00 58 1021.8
20260906063816 76 68 3.0 5.0 0.00 0.00 0.00 61 1021.7
20260906062854 75 68 1.0 3.0 0.00 0.00 0.00 62 1021.7
20260906061816 74 68 1.0 3.0 0.00 0.00 0.00 64 1021.7
20260906060843 73 0.0 1.0 0.00 0.00 0.00 66 1021.6
20260906055816 72 0.0 0.0 0.00 0.00 0.00 70 1021.6
20260906054818 72 0.0 0.0 0.00 0.00 0.00 72 1021.4
20260906053855 71 0.0 0.0 0.00 0.00 0.00 71 1021.4
20260906052817 71 0.0 0.0 0.00 0.00 0.00 70 1021.2
20260906051854 70 0.0 0.0 0.00 0.00 0.00 72 1021.2
20260906050849 70 68 2.0 8.0 0.00 0.00 0.00 71 1021.1
20260906045818 70 0.0 0.0 0.00 0.00 0.00 71 1020.9
20260906044837 71 68 2.0 7.0 0.00 0.00 0.00 70 1020.8
20260906043854 71 0.0 0.0 0.00 0.00 0.00 69 1020.8
20260906042854 71 0.0 0.0 0.00 0.00 0.00 68 1020.7
20260906041816 72 0.0 0.0 0.00 0.00 0.00 66 1020.7
20260906040818 73 0.0 0.0 0.00 0.00 0.00 65 1020.6
20260906035818 73 0.0 0.0 0.00 0.00 0.00 63 1020.6
20260906034818 74 68 1.0 3.0 0.00 0.00 0.00 62 1020.5
20260906033816 75 68 4.0 5.0 0.00 0.00 0.00 61 1020.3
20260906032819 76 68 3.0 5.0 0.00 0.00 0.00 59 1020.3
20260906031816 76 68 6.0 8.0 0.00 0.00 0.00 58 1020.2
20260906030816 75 68 5.0 8.0 0.00 0.00 0.00 60 1020.2
20260906025818 74 68 4.0 7.0 0.00 0.00 0.00 62 1020.1
20260906024818 73 68 5.0 7.0 0.00 0.00 0.00 64 1020.1
20260906023818 73 68 4.0 5.0 0.00 0.00 0.00 65 1020.0
20260906022915 73 68 2.0 5.0 0.00 0.00 0.00 65 1019.9
20260906021824 73 68 1.0 4.0 0.00 0.00 0.00 65 1020.0
20260906020816 74 68 2.0 4.0 0.00 0.00 0.00 64 1020.0
20260906015817 74 68 6.0 8.0 0.00 0.00 0.00 64 1019.9
20260906014855 73 0.0 0.0 0.00 0.00 0.00 65 1019.9
20260906013818 73 0.0 0.0 0.00 0.00 0.00 69 1019.9
20260906012855 73 68 2.0 4.0 0.00 0.00 0.00 68 1019.9
20260906011855 73 68 2.0 4.0 0.00 0.00 0.00 67 1020.0
20260906010818 73 68 2.0 3.0 0.00 0.00 0.00 67 1019.9
20260906005817 73 68 2.0 4.0 0.00 0.00 0.00 67 1019.9
20260906004816 74 68 2.0 5.0 0.00 0.00 0.00 66 1019.9
20260906003857 74 68 4.0 7.0 0.00 0.00 0.00 66 1019.8
20260906002819 75 68 1.0 3.0 0.00 0.00 0.00 65 1019.8
20260906001855 75 68 1.0 3.0 0.00 0.00 0.00 63 1019.8
20260906000818 75 68 3.0 5.0 0.00 0.00 0.00 63 1019.8
20260905235824 75 68 2.0 5.0 0.00 0.00 0.00 63 1019.8
20260905234817 75 68 1.0 2.0 0.00 0.00 0.00 63 1019.7
20260905233817 76 68 2.0 4.0 0.00 0.00 0.00 62 1019.5
20260905232816 76 68 5.0 7.0 0.00 0.00 0.00 61 1019.5
20260905231818 76 68 5.0 7.0 0.00 0.00 0.00 61 1019.4
20260905230839 76 68 2.0 4.0 0.00 0.00 0.00 62 1019.4
20260905225855 76 68 3.0 5.0 0.00 0.00 0.00 62 1019.4
20260905224819 77 68 5.0 7.0 0.00 0.00 0.00 61 1019.2
20260905223817 77 0.0 0.0 0.00 0.00 0.00 60 1019.3
20260905222817 77 68 1.0 3.0 0.00 0.00 0.00 61 1019.1
20260905221816 76 68 1.0 4.0 0.00 0.00 0.00 62 1019.0
20260905220855 75 68 4.0 7.0 0.00 0.00 0.00 66 1019.1
20260905215818 75 0.0 0.0 0.00 0.00 0.00 68 1019.0
20260905214836 75 68 1.0 3.0 0.00 0.00 0.00 68 1019.0
20260905213818 75 0.0 0.0 0.00 0.00 0.00 68 1019.0
20260905212854 75 0.0 1.0 0.00 0.00 0.00 67 1019.0
20260905211854 76 0.0 2.0 0.00 0.00 0.00 68 1019.1
20260905210818 76 0.0 0.0 0.00 0.00 0.00 68 1018.9
20260905205854 77 0.0 0.0 0.00 0.00 0.00 66 1018.9
20260905204817 77 0.0 0.0 0.00 0.00 0.00 65 1018.9
20260905203816 78 0.0 0.0 0.00 0.00 0.00 63 1018.9
20260905202854 77 0.0 0.0 0.00 0.00 0.00 62 1018.7
20260905201823 77 0.0 0.0 0.00 0.00 0.00 63 1018.7
20260905200838 78 68 2.0 3.0 0.00 0.00 0.00 65 1018.5
20260905195818 79 68 2.0 4.0 0.00 0.00 0.00 63 1018.4
20260905194838 80 0.0 1.0 0.00 0.00 0.00 60 1018.2
20260905193816 80 0.0 0.0 0.00 0.00 0.00 59 1018.3
20260905192816 81 0.0 0.0 0.00 0.00 0.00 59 1018.2
20260905191818 82 0.0 1.0 0.00 0.00 0.00 55 1018.0
20260905190815 82 68 1.0 2.0 0.00 0.00 0.00 53 1017.9
20260905185818 82 90 6.0 8.0 0.00 0.00 0.00 52 1017.9
20260905184818 82 90 1.0 5.0 0.00 0.00 0.00 53 1017.8
20260905183818 82 0.0 0.0 0.00 0.00 0.00 53 1017.6
20260905182816 82 0.0 0.0 0.00 0.00 0.00 53 1017.4
20260905181816 83 68 3.0 5.0 0.00 0.00 0.00 53 1017.3
20260905180818 83 68 3.0 7.0 0.00 0.00 0.00 52 1017.2
20260905175817 83 158 3.0 6.0 0.00 0.00 0.00 53 1017.0
20260905174818 84 158 2.0 4.0 0.00 0.00 0.00 53 1016.8
20260905173823 84 0.0 0.0 0.00 0.00 0.00 54 1016.8
20260905172818 84 158 1.0 4.0 0.00 0.00 0.00 55 1016.6
20260905171816 85 0.0 0.0 0.00 0.00 0.00 65 1016.4
20260905170836 86 0.0 0.0 0.00 0.00 0.00 62 1016.3
20260905165818 86 0.0 0.0 0.00 0.00 0.00 60 1016.3
20260905164837 87 0.0 0.0 0.00 0.00 0.00 60 1016.1
20260905163818 87 0.0 0.0 0.00 0.00 0.00 60 1015.9
20260905162816 88 0.0 0.0 0.00 0.00 0.00 59 1015.6
20260905161818 89 0.0 0.0 0.00 0.00 0.00 57 1015.7
20260905160816 89 0.0 2.0 0.00 0.00 0.00 56 1015.6
20260905155816 90 0.0 0.0 0.00 0.00 0.00 56 1015.5
20260905154854 90 0.0 0.0 0.00 0.00 0.00 55 1015.5
20260905153818 91 0.0 0.0 0.00 0.00 0.00 52 1015.5
20260905152818 91 0.0 0.0 0.00 0.00 0.00 52 1015.5
20260905151816 91 0.0 0.0 0.00 0.00 0.00 52 1015.6
20260905150844 91 0.0 0.0 0.00 0.00 0.00 53 1015.5
20260905145836 91 248 2.0 6.0 0.00 0.00 0.00 51 1015.4
20260905144836 92 0.0 8.0 0.00 0.00 0.00 50 1015.4
20260905143854 94 0.0 0.0 0.00 0.00 0.00 51 1015.4
20260905142818 94 0.0 0.0 0.00 0.00 0.00 48 1015.4
20260905141855 94 0.0 0.0 0.00 0.00 0.00 51 1015.4
20260905140816 94 0.0 0.0 0.00 0.00 0.00 50 1015.6
20260905135818 94 0.0 0.0 0.00 0.00 0.00 48 1015.6
20260905134816 93 0.0 0.0 0.00 0.00 0.00 51 1015.6
20260905133816 93 0.0 0.0 0.00 0.00 0.00 50 1015.7
20260905132849 93 0.0 0.0 0.00 0.00 0.00 49 1015.7
20260905131818 92 0.0 0.0 0.00 0.00 0.00 47 1015.6
20260905130838 92 0.0 0.0 0.00 0.00 0.00 45 1015.7
20260905125818 92 0.0 1.0 0.00 0.00 0.00 49 1015.8
20260905124818 91 0.0 0.0 0.00 0.00 0.00 47 1015.9
20260905123817 91 0.0 0.0 0.00 0.00 0.00 50 1016.1
20260905122836 91 0.0 0.0 0.00 0.00 0.00 45 1016.1
20260905121838 92 0.0 0.0 0.00 0.00 0.00 50 1016.3
20260905120818 90 0.0 0.0 0.00 0.00 0.00 49 1016.2
20260905115838 90 0.0 0.0 0.00 0.00 0.00 45 1016.3
20260905114838 90 0.0 0.0 0.00 0.00 0.00 44 1016.3
20260905113855 89 0.0 0.0 0.00 0.00 0.00 44 1016.4
20260905112816 89 0.0 0.0 0.00 0.00 0.00 44 1016.3
20260905111816 90 0.0 0.0 0.00 0.00 0.00 44 1016.4
20260905110816 90 0.0 0.0 0.00 0.00 0.00 50 1016.4
20260905105844 89 0.0 0.0 0.00 0.00 0.00 49 1016.4
20260905104854 88 0.0 0.0 0.00 0.00 0.00 45 1016.5
20260905103859 87 0.0 0.0 0.00 0.00 0.00 51 1016.5
20260905102850 85 0.0 0.0 0.00 0.00 0.00 53 1016.5
20260905101816 85 0.0 0.0 0.00 0.00 0.00 49 1016.5
20260905100817 85 0.0 0.0 0.00 0.00 0.00 46 1016.7
20260905095816 85 0.0 0.0 0.00 0.00 0.00 48 1016.8
20260905094819 85 0.0 0.0 0.00 0.00 0.00 46 1016.7
20260905093818 86 0.0 0.0 0.00 0.00 0.00 45 1016.5
20260905092824 86 0.0 0.0 0.00 0.00 0.00 47 1016.5
20260905091849 86 0.0 0.0 0.00 0.00 0.00 47 1016.6
20260905090837 86 0.0 0.0 0.00 0.00 0.00 52 1016.5
20260905085816 85 0.0 0.0 0.00 0.00 0.00 49 1016.4
20260905084857 85 0.0 0.0 0.00 0.00 0.00 48 1016.4
20260905083844 85 0.0 0.0 0.00 0.00 0.00 53 1016.4
20260905082816 85 0.0 0.0 0.00 0.00 0.00 51 1016.3
20260905081818 85 0.0 0.0 0.00 0.00 0.00 50 1016.2
20260905080818 84 0.0 0.0 0.00 0.00 0.00 51 1016.1
20260905075816 83 0.0 0.0 0.00 0.00 0.00 55 1016.2
20260905074816 81 0.0 0.0 0.00 0.00 0.00 56 1016.2
20260905073817 80 0.0 0.0 0.00 0.00 0.00 65 1016.1
20260905072818 78 0.0 0.0 0.00 0.00 0.00 67 1016.1
20260905071837 77 0.0 0.0 0.00 0.00 0.00 69 1015.9
20260905070819 75 0.0 0.0 0.00 0.00 0.00 70 1015.8
20260905065819 74 0.0 0.0 0.00 0.00 0.00 72 1015.8